Time,TemperatureF,DewpointF,PressureIn,WindDirection,WindDirectionDegrees,WindSpeedMPH,WindSpeedGustMPH,Humidity,HourlyPrecipIn,Conditions,Clouds,dailyrainin,SolarRadiationWatts/m^2,SoftwareType,DateUTC
2013-10-03 00:02:00,50.0,43.0,-100.00,NW,314,11.0,21.0,77,0.02,,,0.02,0.000000,,2013-10-03 07:02:00,
2013-10-03 00:11:00,50.0,43.0,-100.00,NW,314,11.0,21.0,77,0.02,,,0.02,0.000000,,2013-10-03 07:11:00,
2013-10-03 00:22:00,50.0,43.0,-100.00,NW,314,11.0,21.0,77,0.02,,,0.02,0.000000,,2013-10-03 07:22:00,
2013-10-03 00:30:00,48.0,44.0,-100.00,WSW,253,7.0,16.0,85,0.03,,,0.05,0.000000,,2013-10-03 07:30:00,
2013-10-03 00:52:00,48.0,44.0,-100.00,WSW,253,7.0,16.0,85,0.03,,,0.05,0.000000,,2013-10-03 07:52:00,
2013-10-03 01:03:00,48.0,44.0,-100.00,WSW,253,7.0,16.0,85,0.03,,,0.05,0.000000,,2013-10-03 08:03:00,
2013-10-03 01:12:00,48.0,44.0,-100.00,WSW,253,7.0,16.0,85,0.03,,,0.05,0.000000,,2013-10-03 08:12:00,
2013-10-03 01:22:00,48.0,44.0,-100.00,WSW,253,7.0,16.0,85,0.03,,,0.05,0.000000,,2013-10-03 08:22:00,
2013-10-03 01:30:00,46.0,44.0,-100.00,WNW,290,7.0,12.0,92,0.00,,,0.05,0.000000,,2013-10-03 08:30:00,
2013-10-03 01:52:00,46.0,44.0,-100.00,WNW,290,7.0,12.0,92,0.00,,,0.05,0.000000,,2013-10-03 08:52:00,
2013-10-03 02:02:00,46.0,44.0,-100.00,WNW,290,7.0,12.0,92,0.00,,,0.05,0.000000,,2013-10-03 09:02:00,
2013-10-03 02:11:00,46.0,44.0,-100.00,WNW,290,7.0,12.0,92,0.00,,,0.05,0.000000,,2013-10-03 09:11:00,
2013-10-03 02:21:00,46.0,44.0,-100.00,WNW,290,7.0,12.0,92,0.00,,,0.05,0.000000,,2013-10-03 09:21:00,
2013-10-03 02:30:00,44.0,42.0,-100.00,West,278,4.0,8.0,91,0.00,,,0.05,0.000000,,2013-10-03 09:30:00,
2013-10-03 02:53:00,44.0,42.0,-100.00,West,278,4.0,8.0,91,0.00,,,0.05,0.000000,,2013-10-03 09:53:00,
2013-10-03 03:03:00,44.0,42.0,-100.00,West,278,4.0,8.0,91,0.00,,,0.05,0.000000,,2013-10-03 10:03:00,
2013-10-03 03:13:00,44.0,42.0,-100.00,West,278,4.0,8.0,91,0.00,,,0.05,0.000000,,2013-10-03 10:13:00,
2013-10-03 03:23:00,44.0,42.0,-100.00,West,278,4.0,8.0,91,0.00,,,0.05,0.000000,,2013-10-03 10:23:00,
2013-10-03 03:30:00,43.0,41.0,-100.00,West,280,5.0,8.0,94,0.00,,,0.05,0.000000,,2013-10-03 10:30:00,
2013-10-03 03:52:00,43.0,41.0,-100.00,West,280,5.0,8.0,94,0.00,,,0.05,0.000000,,2013-10-03 10:52:00,
2013-10-03 04:03:00,43.0,41.0,-100.00,West,280,5.0,8.0,94,0.00,,,0.05,0.000000,,2013-10-03 11:03:00,
2013-10-03 04:12:00,43.0,41.0,-100.00,West,280,5.0,8.0,94,0.00,,,0.05,0.000000,,2013-10-03 11:12:00,
2013-10-03 04:23:00,43.0,41.0,-100.00,West,280,5.0,8.0,94,0.00,,,0.05,0.000000,,2013-10-03 11:23:00,
2013-10-03 04:30:00,43.0,40.0,-100.00,WSW,257,6.0,10.0,88,0.00,,,0.05,0.000000,,2013-10-03 11:30:00,
2013-10-03 04:52:00,43.0,40.0,-100.00,WSW,257,6.0,10.0,88,0.00,,,0.05,0.000000,,2013-10-03 11:52:00,
2013-10-03 05:01:00,43.0,40.0,-100.00,WSW,257,6.0,10.0,88,0.00,,,0.05,0.000000,,2013-10-03 12:01:00,
2013-10-03 05:12:00,43.0,40.0,-100.00,WSW,257,6.0,10.0,88,0.00,,,0.05,0.000000,,2013-10-03 12:12:00,
2013-10-03 05:22:00,43.0,40.0,-100.00,WSW,257,6.0,10.0,88,0.00,,,0.05,0.000000,,2013-10-03 12:22:00,
2013-10-03 05:30:00,42.0,39.0,-100.00,West,261,8.0,11.0,90,0.00,,,0.05,0.000000,,2013-10-03 12:30:00,
2013-10-03 05:52:00,42.0,39.0,-100.00,West,261,8.0,11.0,90,0.00,,,0.05,0.000000,,2013-10-03 12:52:00,
2013-10-03 06:01:00,42.0,39.0,-100.00,West,261,8.0,11.0,90,0.00,,,0.05,0.000000,,2013-10-03 13:01:00,
2013-10-03 06:11:00,42.0,39.0,-100.00,West,261,8.0,11.0,90,0.00,,,0.05,0.000000,,2013-10-03 13:11:00,
2013-10-03 06:21:00,42.0,39.0,-100.00,West,261,8.0,11.0,90,0.00,,,0.05,0.000000,,2013-10-03 13:21:00,
2013-10-03 06:30:00,41.0,38.0,-100.00,West,266,8.0,10.0,90,0.00,,,0.05,0.000000,,2013-10-03 13:30:00,
2013-10-03 06:52:00,41.0,38.0,-100.00,West,266,8.0,10.0,90,0.00,,,0.05,0.000000,,2013-10-03 13:52:00,
2013-10-03 07:02:00,41.0,38.0,-100.00,West,266,8.0,10.0,90,0.00,,,0.05,0.000000,,2013-10-03 14:02:00,
2013-10-03 07:11:00,41.0,38.0,-100.00,West,266,8.0,10.0,90,0.00,,,0.05,0.000000,,2013-10-03 14:11:00,
2013-10-03 07:21:00,41.0,38.0,-100.00,West,266,8.0,10.0,90,0.00,,,0.05,0.000000,,2013-10-03 14:21:00,
2013-10-03 07:30:00,43.0,39.0,-100.00,WNW,302,7.0,11.0,87,0.00,,,0.05,11.000000,,2013-10-03 14:30:00,
2013-10-03 07:52:00,43.0,39.0,-100.00,WNW,302,7.0,11.0,87,0.00,,,0.05,11.000000,,2013-10-03 14:52:00,
2013-10-03 08:01:00,43.0,39.0,-100.00,WNW,302,7.0,11.0,87,0.00,,,0.05,11.000000,,2013-10-03 15:01:00,
2013-10-03 08:11:00,43.0,39.0,-100.00,WNW,302,7.0,11.0,87,0.00,,,0.05,11.000000,,2013-10-03 15:11:00,
2013-10-03 08:22:00,43.0,39.0,-100.00,WNW,302,7.0,11.0,87,0.00,,,0.05,11.000000,,2013-10-03 15:22:00,
2013-10-03 08:30:00,51.0,40.0,-100.00,NW,309,10.0,15.0,66,0.00,,,0.05,144.000000,,2013-10-03 15:30:00,
2013-10-03 08:54:00,51.0,40.0,-100.00,NW,309,10.0,15.0,66,0.00,,,0.05,144.000000,,2013-10-03 15:54:00,
2013-10-03 09:03:00,51.0,40.0,-100.00,NW,309,10.0,15.0,66,0.00,,,0.05,144.000000,,2013-10-03 16:03:00,
2013-10-03 09:12:00,51.0,40.0,-100.00,NW,309,10.0,15.0,66,0.00,,,0.05,144.000000,,2013-10-03 16:12:00,
2013-10-03 09:23:00,51.0,40.0,-100.00,NW,309,10.0,15.0,66,0.00,,,0.05,144.000000,,2013-10-03 16:23:00,
2013-10-03 09:30:00,55.0,39.0,-100.00,West,272,9.0,16.0,55,0.00,,,0.05,328.000000,,2013-10-03 16:30:00,
2013-10-03 09:53:00,55.0,39.0,-100.00,West,272,9.0,16.0,55,0.00,,,0.05,328.000000,,2013-10-03 16:53:00,
2013-10-03 10:03:00,55.0,39.0,-100.00,West,272,9.0,16.0,55,0.00,,,0.05,328.000000,,2013-10-03 17:03:00,
2013-10-03 10:12:00,55.0,39.0,-100.00,West,272,9.0,16.0,55,0.00,,,0.05,328.000000,,2013-10-03 17:12:00,
2013-10-03 10:22:00,55.0,39.0,-100.00,West,272,9.0,16.0,55,0.00,,,0.05,328.000000,,2013-10-03 17:22:00,
2013-10-03 10:30:00,57.0,40.0,-100.00,West,275,8.0,13.0,53,0.00,,,0.05,478.000000,,2013-10-03 17:30:00,
2013-10-03 10:52:00,57.0,40.0,-100.00,West,275,8.0,13.0,53,0.00,,,0.05,478.000000,,2013-10-03 17:52:00,
2013-10-03 11:01:00,57.0,40.0,-100.00,West,275,8.0,13.0,53,0.00,,,0.05,478.000000,,2013-10-03 18:01:00,
2013-10-03 11:12:00,57.0,40.0,-100.00,West,275,8.0,13.0,53,0.00,,,0.05,478.000000,,2013-10-03 18:12:00,
2013-10-03 11:22:00,57.0,40.0,-100.00,West,275,8.0,13.0,53,0.00,,,0.05,478.000000,,2013-10-03 18:22:00,
2013-10-03 11:30:00,59.0,40.0,-100.00,NW,322,10.0,15.0,50,0.00,,,0.05,599.000000,,2013-10-03 18:30:00,
2013-10-03 11:52:00,59.0,40.0,-100.00,NW,322,10.0,15.0,50,0.00,,,0.05,599.000000,,2013-10-03 18:52:00,
2013-10-03 12:01:00,59.0,40.0,-100.00,NW,322,10.0,15.0,50,0.00,,,0.05,599.000000,,2013-10-03 19:01:00,
2013-10-03 12:11:00,59.0,40.0,-100.00,NW,322,10.0,15.0,50,0.00,,,0.05,599.000000,,2013-10-03 19:11:00,
2013-10-03 12:21:00,59.0,40.0,-100.00,NW,322,10.0,15.0,50,0.00,,,0.05,599.000000,,2013-10-03 19:21:00,
2013-10-03 12:30:00,62.0,39.0,-100.00,NNW,329,12.0,20.0,42,0.00,,,0.05,726.000000,,2013-10-03 19:30:00,
2013-10-03 12:52:00,62.0,39.0,-100.00,NNW,329,12.0,20.0,42,0.00,,,0.05,726.000000,,2013-10-03 19:52:00,
2013-10-03 13:02:00,62.0,39.0,-100.00,NNW,329,12.0,20.0,42,0.00,,,0.05,726.000000,,2013-10-03 20:02:00,
2013-10-03 13:11:00,62.0,39.0,-100.00,NNW,329,12.0,20.0,42,0.00,,,0.05,726.000000,,2013-10-03 20:11:00,
2013-10-03 13:21:00,62.0,39.0,-100.00,NNW,329,12.0,20.0,42,0.00,,,0.05,726.000000,,2013-10-03 20:21:00,
2013-10-03 13:30:00,64.0,37.0,-100.00,NW,318,12.0,18.0,36,0.00,,,0.05,761.000000,,2013-10-03 20:30:00,
2013-10-03 13:52:00,64.0,37.0,-100.00,NW,318,12.0,18.0,36,0.00,,,0.05,761.000000,,2013-10-03 20:52:00,
2013-10-03 14:02:00,64.0,37.0,-100.00,NW,318,12.0,18.0,36,0.00,,,0.05,761.000000,,2013-10-03 21:02:00,
2013-10-03 14:12:00,64.0,37.0,-100.00,NW,318,12.0,18.0,36,0.00,,,0.05,761.000000,,2013-10-03 21:12:00,
2013-10-03 14:21:00,64.0,37.0,-100.00,NW,318,12.0,18.0,36,0.00,,,0.05,761.000000,,2013-10-03 21:21:00,
2013-10-03 14:30:00,66.0,35.0,-100.00,NNW,327,11.0,19.0,32,0.00,,,0.05,711.000000,,2013-10-03 21:30:00,
2013-10-03 14:54:00,66.0,35.0,-100.00,NNW,327,11.0,19.0,32,0.00,,,0.05,711.000000,,2013-10-03 21:54:00,
2013-10-03 15:04:00,66.0,35.0,-100.00,NNW,327,11.0,19.0,32,0.00,,,0.05,711.000000,,2013-10-03 22:04:00,
2013-10-03 15:13:00,66.0,35.0,-100.00,NNW,327,11.0,19.0,32,0.00,,,0.05,711.000000,,2013-10-03 22:13:00,
2013-10-03 15:23:00,66.0,35.0,-100.00,NNW,327,11.0,19.0,32,0.00,,,0.05,711.000000,,2013-10-03 22:23:00,
2013-10-03 15:30:00,67.0,34.0,-100.00,NW,325,10.0,16.0,29,0.00,,,0.05,648.000000,,2013-10-03 22:30:00,
2013-10-03 15:54:00,67.0,34.0,-100.00,NW,325,10.0,16.0,29,0.00,,,0.05,648.000000,,2013-10-03 22:54:00,
2013-10-03 16:03:00,67.0,34.0,-100.00,NW,325,10.0,16.0,29,0.00,,,0.05,648.000000,,2013-10-03 23:03:00,
2013-10-03 16:12:00,67.0,34.0,-100.00,NW,325,10.0,16.0,29,0.00,,,0.05,648.000000,,2013-10-03 23:12:00,
2013-10-03 16:22:00,67.0,34.0,-100.00,NW,325,10.0,16.0,29,0.00,,,0.05,648.000000,,2013-10-03 23:22:00,
2013-10-03 16:30:00,67.0,34.0,-100.00,NW,310,6.0,14.0,29,0.00,,,0.05,502.000000,,2013-10-03 23:30:00,
2013-10-03 17:12:00,67.0,34.0,-100.00,NW,310,6.0,14.0,29,0.00,,,0.05,502.000000,,2013-10-04 00:12:00,
2013-10-03 17:21:00,67.0,34.0,-100.00,NW,310,6.0,14.0,29,0.00,,,0.05,502.000000,,2013-10-04 00:21:00,
2013-10-03 17:30:00,66.0,33.0,-100.00,NW,312,7.0,12.0,29,0.00,,,0.05,318.000000,,2013-10-04 00:30:00,
2013-10-03 17:52:00,66.0,33.0,-100.00,NW,312,7.0,12.0,29,0.00,,,0.05,318.000000,,2013-10-04 00:52:00,
2013-10-03 18:02:00,66.0,33.0,-100.00,NW,312,7.0,12.0,29,0.00,,,0.05,318.000000,,2013-10-04 01:02:00,
2013-10-03 18:12:00,66.0,33.0,-100.00,NW,312,7.0,12.0,29,0.00,,,0.05,318.000000,,2013-10-04 01:12:00,
2013-10-03 18:21:00,66.0,33.0,-100.00,NW,312,7.0,12.0,29,0.00,,,0.05,318.000000,,2013-10-04 01:21:00,
2013-10-03 18:30:00,57.0,40.0,-100.00,NNW,328,3.0,8.0,52,0.00,,,0.05,113.000000,,2013-10-04 01:30:00,
2013-10-03 18:52:00,57.0,40.0,-100.00,NNW,328,3.0,8.0,52,0.00,,,0.05,113.000000,,2013-10-04 01:52:00,
2013-10-03 19:02:00,57.0,40.0,-100.00,NNW,328,3.0,8.0,52,0.00,,,0.05,113.000000,,2013-10-04 02:02:00,
2013-10-03 19:12:00,57.0,40.0,-100.00,NNW,328,3.0,8.0,52,0.00,,,0.05,113.000000,,2013-10-04 02:12:00,
2013-10-03 19:22:00,57.0,40.0,-100.00,NNW,328,3.0,8.0,52,0.00,,,0.05,113.000000,,2013-10-04 02:22:00,
2013-10-03 21:00:00,45.0,37.0,-100.00,NW,318,5.0,10.0,72,0.00,,,0.05,0.000000,,2013-10-04 04:00:00,
2013-10-03 21:30:00,48.0,37.0,-100.00,WNW,289,6.0,10.0,66,0.00,,,0.05,0.000000,,2013-10-04 04:30:00,
2013-10-03 22:10:00,48.0,37.0,-100.00,WNW,289,6.0,10.0,66,0.00,,,0.05,0.000000,,2013-10-04 05:10:00,
2013-10-03 22:22:00,48.0,37.0,-100.00,WNW,289,6.0,10.0,66,0.00,,,0.05,0.000000,,2013-10-04 05:22:00,
2013-10-03 22:30:00,47.0,38.0,-100.00,NW,316,3.0,8.0,71,0.00,,,0.05,0.000000,,2013-10-04 05:30:00,
2013-10-03 22:58:00,47.0,38.0,-100.00,NW,316,3.0,8.0,71,0.00,,,0.05,0.000000,,2013-10-04 05:58:00,
2013-10-03 23:06:00,47.0,38.0,-100.00,NW,316,3.0,8.0,71,0.00,,,0.05,0.000000,,2013-10-04 06:06:00,
2013-10-03 23:16:00,47.0,38.0,-100.00,NW,316,3.0,8.0,71,0.00,,,0.05,0.000000,,2013-10-04 06:16:00,
2013-10-03 23:24:00,47.0,38.0,-100.00,NW,316,3.0,8.0,71,0.00,,,0.05,0.000000,,2013-10-04 06:24:00,
2013-10-03 23:30:00,46.0,37.0,-100.00,WSW,253,6.0,8.0,72,0.00,,,0.03,0.000000,,2013-10-04 06:30:00,
2013-10-03 23:57:00,46.0,37.0,-100.00,WSW,253,6.0,8.0,72,0.00,,,0.03,0.000000,,2013-10-04 06:57:00,